Terminal Aerodrome Forecast
Issued by NWS

Home | Current Version | Previous Version | Text Only | Print | Product List | Glossary On
Versions: 1 2 3 4 5 6 7 8 9 10 11 12 13 14 15 16 17
000
FTUS45 KFGZ 201100
TAFPRC
TAF
KPRC 201126Z 2012/2112 19007KT P6SM SKC
     FM201700 VRB06KT P6SM SCT090
      TEMPO 2020/2024 BKN090
     FM210200 19006KT P6SM SKC=

USA.gov is the U.S. government's official web portal to all federal, state and local government web resources and services.